[[{"header":{"parameterUnit":"m.s-1","parameterCategory":2,"la1":30.2991,"la2":30.254,"lo1":-89.0895,"lo2":-89.0444,"dy":0.0017,"dx":0.0017,"nx":28,"ny":28,"refTime":"2025-08-17T09:00:00:Z","depth":"0","parameterNumber":2,"parameterNumberName":"U-component_of_CURRENTS"},"data":[0,0,0,0,0,0,0,0,0,0,0,0,0,0,0,0,0,0,0,0,0,0,0,0,0,0,0,0,0,0,0,0,0,0,0,0,0,0,0,0,0,0,0,0,0,0,0,0,0,0,0,0,0,0,0,0,0,0,-0.3188,-0.3188,0,-0.3131,-0.3131,-0.313,-0.3032,-0.3031,-0.3029,-0.3027,-0.2979,-0.2979,-0.2979,0,0,0,0,0,0,0,0,0,0,0,0,0,-0.303,-0.3035,-0.3188,-0.3188,-0.3187,-0.3131,-0.3131,-0.313,-0.3033,-0.3031,-0.3028,-0.3026,-0.2979,-0.2979,-0.2979,0,0,0,0,0,0,0,0,0,0,0,0,0,-0.3049,-0.3036,-0.3188,-0.3132,-0.3127,-0.3132,-0.313,-0.3129,-0.3033,-0.3031,-0.3028,-0.3025,-0.2978,-0.2979,-0.298,-0.3036,0,0,-0.2981,-0.2981,0,0,0,0,0,0,0,0,-0.3048,-0.3055,-0.3141,-0.3136,-0.313,-0.3087,-0.3057,-0.3099,-0.3034,-0.3068,-0.3027,-0.3024,-0.3018,-0.3015,-0.3009,-0.3034,-0.3032,-0.2981,-0.2982,-0.2982,-0.2982,0,0,0,0,0,0,0,-0.3047,-0.3055,-0.3165,-0.3141,-0.3134,-0.3047,-0.3049,-0.3063,-0.3058,-0.3065,-0.3058,-0.3053,-0.3015,-0.3009,-0.3008,-0.3031,-0.2981,-0.2982,-0.2982,-0.2982,-0.3038,-0.3039,0,0,0,0,0,0,-0.3069,-0.3056,-0.3167,-0.3163,-0.3082,-0.3053,-0.3054,-0.3103,-0.3058,-0.3048,-0.3056,-0.3049,-0.3009,-0.3007,-0.3006,-0.3017,-0.2982,-0.2982,-0.2983,-0.3037,-0.3038,-0.3039,0,0,0,0,0,0,-0.3067,-0.3082,-0.3169,-0.3104,-0.3109,-0.306,-0.3114,-0.3103,-0.3085,-0.3051,-0.3041,-0.3047,-0.3007,-0.3005,-0.3007,-0.3017,-0.2983,-0.2983,-0.3035,-0.3037,-0.3039,-0.3075,0,0,0,0,0,0,-0.3064,-0.3083,-0.3119,-0.3109,-0.3114,-0.3168,-0.3116,-0.3104,-0.3087,-0.3078,-0.3041,-0.3034,-0.3005,-0.3006,-0.3008,-0.3017,-0.2983,-0.3034,-0.3036,-0.3038,-0.3073,-0.3078,-0.3083,0,0,0,0,0,-0.3059,-0.3107,-0.3123,-0.3134,-0.3171,-0.3169,-0.3164,-0.3116,-0.309,-0.3089,-0.3061,-0.3034,-0.302,-0.3008,-0.3009,-0.3019,-0.3033,-0.3036,-0.3038,-0.307,-0.3077,-0.3083,0,0,0,0,0,0,-0.3038,-0.3102,-0.3118,-0.3181,-0.318,-0.3153,-0.3143,-0.3126,-0.3105,-0.3093,-0.3056,-0.3049,-0.3056,-0.3042,-0.303,-0.3042,-0.3021,-0.3024,-0.3045,-0.3051,-0.3056,-0.3028,-0.2984,0,0,0,0,0,-0.3065,-0.3127,-0.3152,-0.3197,-0.3203,-0.3182,-0.3174,-0.3153,-0.3134,-0.312,-0.3097,-0.3078,-0.3074,-0.3064,-0.3062,-0.3077,-0.2998,-0.3083,-0.3088,-0.3092,-0.3071,-0.2965,-0.2956,-0.3048,-0.3048,-0.3048,0,0,-0.306,-0.3108,-0.3137,-0.3198,-0.3191,-0.3205,-0.3169,-0.3165,-0.3169,-0.3125,-0.3118,-0.3104,-0.3086,-0.309,-0.3092,-0.3074,-0.3025,-0.3095,-0.3099,-0.3075,-0.2966,-0.2957,-0.2948,-0.305,-0.3049,-0.3049,0,0,-0.306,-0.3137,-0.3171,-0.3196,-0.3213,-0.3214,-0.3219,-0.321,-0.3194,-0.3208,-0.3168,-0.315,-0.3159,-0.3124,-0.3115,-0.3153,-0.3064,-0.3165,-0.3156,-0.3054,-0.3044,-0.3035,-0.2913,-0.2893,-0.3157,-0.3157,-0.3157,0,-0.304,-0.31,-0.3168,-0.3204,-0.3202,-0.3224,-0.3222,-0.3242,-0.323,-0.3205,-0.321,-0.317,-0.3168,-0.3132,-0.3148,-0.316,-0.3076,-0.3133,-0.3056,-0.3045,-0.3034,-0.2912,-0.2888,-0.3159,-0.3159,-0.3159,-0.3159,0,-0.306,-0.31,-0.3114,-0.3185,-0.3215,-0.3207,-0.3256,-0.327,-0.3267,-0.3254,-0.3225,-0.3214,-0.3167,-0.3185,-0.3185,-0.3118,-0.3073,-0.3079,-0.303,-0.3026,-0.2899,-0.2873,-0.3162,-0.3162,-0.3161,-0.3161,0,0,-0.2973,-0.3096,-0.3091,-0.3099,-0.3187,-0.3193,-0.325,-0.3247,-0.3218,-0.3247,-0.3178,-0.3207,-0.3172,-0.3159,-0.3145,-0.3075,-0.2951,-0.3049,-0.3042,-0.2909,-0.269,-0.259,-0.2552,-0.2932,-0.2928,-0.2925,-0.2626,0,-0.2917,-0.296,-0.3052,-0.3058,-0.3054,-0.3136,-0.317,-0.3203,-0.3203,-0.3162,-0.3161,-0.3111,-0.3174,-0.3126,-0.308,-0.2993,-0.2887,-0.3029,-0.273,-0.272,-0.2615,-0.2521,-0.2437,-0.2158,-0.2601,-0.2597,-0.2594,0,-0.2849,-0.2889,-0.2891,-0.2948,-0.2955,-0.2986,-0.2995,-0.3034,-0.3045,-0.3044,-0.3022,-0.3009,-0.296,-0.2989,-0.2827,-0.2911,-0.2793,-0.2718,-0.2704,-0.2574,-0.2572,-0.2238,-0.2094,-0.2101,-0.2554,-0.2557,-0.256,0,-0.2673,-0.2743,-0.2728,-0.2755,-0.2859,-0.2864,-0.2911,-0.2956,-0.2957,-0.2938,-0.2904,-0.2868,-0.281,-0.2714,-0.263,-0.2698,-0.2396,-0.2466,-0.2244,-0.2236,-0.2085,-0.2069,-0.1891,-0.2267,-0.2268,-0.2268,-0.2269,0,-0.2533,-0.2501,-0.2638,-0.2629,-0.2598,-0.2731,-0.2693,-0.2743,-0.2775,-0.2746,-0.2808,-0.2739,-0.2732,-0.26,-0.2535,-0.2303,-0.2313,-0.219,-0.2135,-0.2098,-0.2087,-0.2024,-0.2082,-0.2257,-0.226,-0.2262,-0.2264,0,-0.2297,-0.2398,-0.2376,-0.2483,-0.251,-0.2485,-0.2588,-0.2576,-0.2629,-0.2587,-0.2579,-0.2589,-0.2436,-0.2372,-0.217,-0.2136,-0.1894,-0.1839,-0.1792,-0.1737,-0.1595,-0.166,-0.1392,-0.1353,-0.1556,-0.1552,-0.1548,0,-0.2158,-0.2131,-0.224,-0.2254,-0.2288,-0.231,-0.2347,-0.2469,-0.249,-0.2484,-0.2453,-0.2305,-0.2181,-0.1875,-0.1769,-0.1555,-0.1622,-0.1361,-0.1492,-0.1517,-0.1548,-0.163,-0.1626,-0.1298,-0.1293,-0.1288,-0.1285,0,-0.1881,-0.1942,-0.1963,-0.2007,-0.2048,-0.2099,-0.2168,-0.217,-0.2307,-0.2232,-0.2101,-0.197,-0.1759,-0.152,-0.1315,-0.1218,-0.1364,-0.1259,-0.1283,-0.1306,-0.1378,-0.1338,-0.1575,-0.1244,-0.1248,-0.1251,-0.1253,-0.1255,-0.167,-0.1634,-0.1714,-0.1734,-0.1799,-0.186,-0.1851,-0.1914,-0.1859,-0.1735,-0.1732,-0.1432,-0.1328,-0.1033,-0.0966,-0.0871,-0.0991,-0.0874,-0.0934,-0.1002,-0.1011,-0.1148,-0.0779,-0.078,-0.0782,-0.0783,-0.0783,0,-0.143,-0.1446,-0.1447,-0.1511,-0.1521,-0.1638,-0.1716,-0.1667,-0.1523,-0.137,-0.1157,-0.0812,-0.0674,-0.065,-0.0618,-0.0588,-0.0641,-0.0598,-0.0723,-0.0724,-0.0803,-0.0845,-0.0476,-0.0476,-0.0476,-0.0476,-0.0476,-0.0476,-0.1317,-0.1258,-0.1282,-0.1225,-0.1274,-0.1277,-0.1294,-0.1171,-0.1058,-0.066,-0.0379,-0.0248,-0.0305,-0.046,-0.0517,-0.0504,-0.0561,-0.051,-0.0574,-0.0697,-0.0731,-0.0764,-0.0815,-0.0446,-0.0446,-0.0471,-0.0472,-0.0472]},{"header":{"parameterUnit":"m.s-1","parameterCategory":2,"la1":30.2991,"la2":30.254,"lo1":-89.0895,"lo2":-89.0444,"dy":0.0017,"dx":0.0017,"nx":28,"ny":28,"refTime":"2025-08-17T09:00:00:Z","depth":"0","parameterNumber":3,"parameterNumberName":"V-component_of_CURRENTS"},"data":[0,0,0,0,0,0,0,0,0,0,0,0,0,0,0,0,0,0,0,0,0,0,0,0,0,0,0,0,0,0,0,0,0,0,0,0,0,0,0,0,0,0,0,0,0,0,0,0,0,0,0,0,0,0,0,0,0,0,-0.0618,-0.0617,0,-0.0543,-0.0542,-0.0541,-0.0435,-0.0434,-0.0432,-0.0431,-0.0287,-0.0285,-0.0283,0,0,0,0,0,0,0,0,0,0,0,0,0,-0.0648,-0.0648,-0.0618,-0.0617,-0.0617,-0.0544,-0.0542,-0.0541,-0.0436,-0.0434,-0.0432,-0.043,-0.0288,-0.0285,-0.0282,0,0,0,0,0,0,0,0,0,0,0,0,0,-0.0609,-0.0648,-0.0618,-0.0557,-0.0551,-0.0544,-0.0542,-0.0541,-0.0436,-0.0434,-0.0431,-0.0429,-0.0289,-0.0285,-0.0282,-0.0308,0,0,-0.0271,-0.027,0,0,0,0,0,0,0,0,-0.0611,-0.0607,-0.0567,-0.0561,-0.0554,-0.0498,-0.05,-0.046,-0.0437,-0.0477,-0.0431,-0.0428,-0.0355,-0.0346,-0.0335,-0.0302,-0.0296,-0.0271,-0.0269,-0.0267,-0.0266,0,0,0,0,0,0,0,-0.0614,-0.061,-0.0586,-0.0566,-0.0559,-0.0526,-0.0518,-0.0492,-0.0427,-0.0473,-0.0466,-0.0462,-0.035,-0.0338,-0.033,-0.0293,-0.0271,-0.0268,-0.0266,-0.0264,-0.0287,-0.029,0,0,0,0,0,0,-0.0632,-0.0613,-0.0588,-0.0584,-0.058,-0.0528,-0.0518,-0.0517,-0.0429,-0.0414,-0.0465,-0.0458,-0.0345,-0.0334,-0.0325,-0.0335,-0.0267,-0.0264,-0.0262,-0.0285,-0.0288,-0.0291,0,0,0,0,0,0,-0.0633,-0.0631,-0.0592,-0.0598,-0.0591,-0.053,-0.0529,-0.0517,-0.0499,-0.0423,-0.0406,-0.0459,-0.0343,-0.033,-0.0317,-0.0329,-0.0262,-0.0259,-0.0282,-0.0286,-0.029,-0.0367,0,0,0,0,0,0,-0.0634,-0.0632,-0.0635,-0.06,-0.0592,-0.0604,-0.0531,-0.0517,-0.0502,-0.0492,-0.0414,-0.0398,-0.034,-0.0323,-0.0314,-0.0323,-0.0257,-0.0278,-0.0283,-0.0288,-0.0361,-0.0373,-0.0383,0,0,0,0,0,-0.0636,-0.0663,-0.0635,-0.0632,-0.0599,-0.0606,-0.06,-0.0545,-0.0504,-0.0516,-0.0464,-0.04,-0.0349,-0.0323,-0.0311,-0.0319,-0.0276,-0.0282,-0.0288,-0.0356,-0.037,-0.0383,0,0,0,0,0,0,-0.0681,-0.0654,-0.0623,-0.0639,-0.0628,-0.0589,-0.0595,-0.0559,-0.0528,-0.0512,-0.0432,-0.0415,-0.0409,-0.0373,-0.0347,-0.0349,-0.0303,-0.0308,-0.0359,-0.0372,-0.0383,-0.0376,-0.0254,0,0,0,0,0,-0.0694,-0.0702,-0.0674,-0.0689,-0.0687,-0.0642,-0.0635,-0.0603,-0.0573,-0.0555,-0.0502,-0.0457,-0.043,-0.0407,-0.0382,-0.0384,-0.0318,-0.0388,-0.0399,-0.0408,-0.04,-0.0329,-0.0331,-0.0311,-0.0311,-0.0311,0,0,-0.0717,-0.0702,-0.0706,-0.0698,-0.068,-0.0685,-0.0632,-0.0637,-0.063,-0.0547,-0.0529,-0.0496,-0.0445,-0.0442,-0.0436,-0.0406,-0.0384,-0.0416,-0.0424,-0.041,-0.0335,-0.0336,-0.0337,-0.0315,-0.0314,-0.0314,0,0,-0.077,-0.0755,-0.0775,-0.0769,-0.0754,-0.0731,-0.0738,-0.0708,-0.0684,-0.0682,-0.0617,-0.0591,-0.056,-0.0511,-0.0485,-0.055,-0.0452,-0.0558,-0.0592,-0.0524,-0.0523,-0.0522,-0.0444,-0.0435,-0.0555,-0.0555,-0.0555,0,-0.0796,-0.0804,-0.0787,-0.08,-0.0796,-0.0755,-0.0773,-0.0756,-0.0723,-0.0712,-0.0691,-0.0635,-0.0585,-0.0556,-0.0576,-0.0567,-0.0516,-0.0535,-0.0533,-0.053,-0.0527,-0.0447,-0.0436,-0.056,-0.0559,-0.0559,-0.0558,0,-0.0853,-0.0854,-0.0874,-0.0864,-0.0869,-0.0885,-0.0859,-0.086,-0.0832,-0.0799,-0.0783,-0.0726,-0.0681,-0.0676,-0.0639,-0.0609,-0.0575,-0.0556,-0.0485,-0.0532,-0.0447,-0.0434,-0.0566,-0.0564,-0.0563,-0.0562,0,0,-0.092,-0.0913,-0.0916,-0.092,-0.09,-0.0921,-0.0922,-0.0915,-0.0906,-0.0881,-0.0857,-0.0822,-0.0779,-0.0749,-0.0699,-0.0643,-0.0576,-0.0599,-0.0593,-0.0498,-0.0418,-0.0378,-0.0359,-0.0555,-0.0553,-0.0552,-0.0365,0,-0.0962,-0.1002,-0.0979,-0.1014,-0.1032,-0.1,-0.1009,-0.0996,-0.0962,-0.0932,-0.0872,-0.0833,-0.0809,-0.0778,-0.0725,-0.0609,-0.0546,-0.0627,-0.0406,-0.0399,-0.0337,-0.0344,-0.03,-0.0129,-0.0352,-0.0349,-0.0348,0,-0.1009,-0.103,-0.1073,-0.1085,-0.1092,-0.1107,-0.1109,-0.1106,-0.1049,-0.1023,-0.0969,-0.0896,-0.081,-0.0782,-0.0606,-0.0662,-0.0551,-0.0463,-0.0454,-0.0375,-0.0335,-0.012,-0.0096,0.0005,-0.0327,-0.0328,-0.033,0,-0.1067,-0.1091,-0.1131,-0.1135,-0.1146,-0.1166,-0.1171,-0.1137,-0.1125,-0.1056,-0.1013,-0.0921,-0.0831,-0.0716,-0.0531,-0.0564,-0.0319,-0.0331,-0.0191,-0.0185,-0.0081,-0.007,0.0091,-0.0202,-0.0202,-0.0202,-0.0203,0,-0.111,-0.1135,-0.1167,-0.1191,-0.1248,-0.1232,-0.1265,-0.1248,-0.1192,-0.113,-0.1055,-0.095,-0.0807,-0.064,-0.0519,-0.03,-0.0299,-0.0183,-0.0133,-0.0112,-0.0106,0.0039,0.0062,-0.0195,-0.0197,-0.0198,-0.02,0,-0.1128,-0.1155,-0.1204,-0.125,-0.1273,-0.1312,-0.133,-0.1331,-0.1272,-0.1172,-0.1137,-0.0951,-0.0726,-0.0571,-0.0327,-0.0248,0.0016,0.0012,0.0029,0.0076,0.025,0.0265,0.0482,0.0569,0.0178,0.018,0.0182,0,-0.1117,-0.1148,-0.1248,-0.1302,-0.132,-0.1378,-0.1407,-0.1385,-0.1341,-0.1134,-0.1057,-0.0822,-0.0594,-0.0265,-0.0103,0.0111,0.0174,0.0263,0.0197,0.0282,0.0337,0.0334,0.039,0.0313,0.0316,0.0318,0.032,0,-0.1075,-0.1127,-0.1177,-0.1307,-0.1371,-0.1432,-0.1439,-0.1405,-0.1296,-0.1123,-0.0824,-0.0616,-0.0331,-0.005,0.0163,0.0277,0.0335,0.0314,0.0413,0.0465,0.0467,0.0567,0.0169,0.034,0.0338,0.0336,0.0335,0.0334,-0.1027,-0.1069,-0.1165,-0.1277,-0.1366,-0.1403,-0.1378,-0.1274,-0.1099,-0.0722,-0.0598,-0.0176,0.0025,0.034,0.0423,0.0585,0.0536,0.0643,0.0662,0.0656,0.0713,0.0351,0.0558,0.0558,0.0557,0.0556,0.0556,0,-0.0968,-0.1032,-0.1125,-0.1257,-0.1333,-0.1395,-0.1332,-0.1191,-0.0862,-0.0494,-0.0132,0.0342,0.0572,0.0692,0.0844,0.0932,0.0933,0.098,0.0992,0.104,0.0751,0.0727,0.0966,0.0966,0.0966,0.0966,0.0966,0.0966,-0.0946,-0.1011,-0.1073,-0.1175,-0.1263,-0.1259,-0.1185,-0.0864,-0.0561,0.0085,0.0504,0.0773,0.0937,0.1076,0.1213,0.123,0.1338,0.1309,0.1374,0.116,0.1129,0.11,0.1085,0.1395,0.1396,0.1669,0.1672,0.1674]}],[{"header":{"parameterUnit":"m.s-1","parameterCategory":2,"la1":30.2991,"la2":30.254,"lo1":-89.0895,"lo2":-89.0444,"dy":0.0017,"dx":0.0017,"nx":28,"ny":28,"refTime":"2025-08-17T09:00:00:Z","depth":"2","parameterNumber":2,"parameterNumberName":"U-component_of_CURRENTS"},"data":[0,0,0,0,0,0,0,0,0,0,0,0,0,0,0,0,0,0,0,0,0,0,0,0,0,0,0,0,0,0,0,0,0,0,0,0,0,0,0,0,0,0,0,0,0,0,0,0,0,0,0,0,0,0,0,0,0,0,-0.1866,-0.1868,0,-0.1964,-0.1965,-0.1966,-0.1976,-0.1976,-0.1975,-0.1974,-0.2069,-0.2072,-0.2075,0,0,0,0,0,0,0,0,0,0,0,0,0,-0.1863,-0.1861,-0.1866,-0.1868,-0.1869,-0.1964,-0.1965,-0.1966,-0.1976,-0.1976,-0.1975,-0.1974,-0.2068,-0.2072,-0.2075,0,0,0,0,0,0,0,0,0,0,0,0,0,-0.1898,-0.1861,-0.1866,-0.1889,-0.1892,-0.1964,-0.1965,-0.1966,-0.1977,-0.1976,-0.1975,-0.1974,-0.2067,-0.2071,-0.2076,-0.2123,0,0,-0.209,-0.2092,0,0,0,0,0,0,0,0,-0.1896,-0.1898,-0.1884,-0.1887,-0.1891,-0.1961,-0.1999,-0.202,-0.1977,-0.194,-0.1974,-0.1973,-0.2036,-0.2043,-0.2058,-0.2128,-0.2132,-0.2091,-0.2093,-0.2095,-0.2097,0,0,0,0,0,0,0,-0.1893,-0.1895,-0.1901,-0.1886,-0.189,-0.1955,-0.1957,-0.2003,-0.1989,-0.1943,-0.1945,-0.1963,-0.2037,-0.2053,-0.206,-0.2133,-0.209,-0.2095,-0.2097,-0.2099,-0.2186,-0.2186,0,0,0,0,0,0,-0.1881,-0.1891,-0.1898,-0.1904,-0.1896,-0.1955,-0.1957,-0.1936,-0.1989,-0.1997,-0.1964,-0.1963,-0.2046,-0.2055,-0.2064,-0.2071,-0.2095,-0.21,-0.2102,-0.2187,-0.2186,-0.2185,0,0,0,0,0,0,-0.188,-0.1879,-0.1894,-0.1906,-0.1913,-0.1955,-0.1932,-0.1939,-0.1955,-0.2005,-0.2012,-0.1974,-0.2045,-0.2057,-0.2087,-0.2076,-0.2102,-0.2106,-0.2187,-0.2186,-0.2186,-0.2119,0,0,0,0,0,0,-0.1878,-0.1877,-0.1847,-0.1903,-0.1912,-0.1915,-0.1934,-0.1941,-0.197,-0.197,-0.2017,-0.2024,-0.2046,-0.208,-0.2092,-0.2083,-0.211,-0.2188,-0.2187,-0.2186,-0.2122,-0.2116,-0.2111,0,0,0,0,0,-0.1877,-0.1854,-0.1844,-0.1845,-0.187,-0.1915,-0.1924,-0.1951,-0.1971,-0.1965,-0.1998,-0.2023,-0.2082,-0.2084,-0.2098,-0.209,-0.2188,-0.2187,-0.2186,-0.2124,-0.2117,-0.2111,0,0,0,0,0,0,-0.1845,-0.1855,-0.1845,-0.1823,-0.1853,-0.1917,-0.193,-0.1956,-0.1981,-0.1989,-0.2028,-0.2037,-0.2051,-0.2087,-0.2088,-0.2111,-0.2136,-0.2138,-0.2084,-0.2078,-0.2073,-0.2029,-0.2113,0,0,0,0,0,-0.182,-0.18,-0.1827,-0.1815,-0.1827,-0.1878,-0.19,-0.1924,-0.1965,-0.1976,-0.2013,-0.2047,-0.2061,-0.2081,-0.2104,-0.2135,-0.2133,-0.2136,-0.2131,-0.2126,-0.2099,-0.2083,-0.2072,-0.2182,-0.2182,-0.2182,0,0,-0.1815,-0.1814,-0.1806,-0.1807,-0.1838,-0.1849,-0.1887,-0.1928,-0.1925,-0.1986,-0.1999,-0.2033,-0.2063,-0.2074,-0.2086,-0.2104,-0.2096,-0.2124,-0.212,-0.2095,-0.208,-0.2069,-0.206,-0.2181,-0.2181,-0.2181,0,0,-0.1816,-0.1784,-0.1775,-0.1785,-0.182,-0.1842,-0.1851,-0.191,-0.1913,-0.1948,-0.1966,-0.1979,-0.205,-0.2034,-0.2044,-0.2027,-0.2062,-0.206,-0.2008,-0.1993,-0.1983,-0.1975,-0.1965,-0.1955,-0.2065,-0.2065,-0.2065,0,-0.1804,-0.1779,-0.1786,-0.1784,-0.1792,-0.1834,-0.184,-0.1847,-0.1906,-0.1914,-0.1942,-0.1997,-0.2013,-0.1994,-0.1975,-0.201,-0.2022,-0.203,-0.1983,-0.1975,-0.1967,-0.1959,-0.195,-0.2062,-0.2062,-0.2062,-0.2063,0,-0.1796,-0.1776,-0.1783,-0.1768,-0.1776,-0.1794,-0.1804,-0.1816,-0.1849,-0.1871,-0.1881,-0.1902,-0.1935,-0.1938,-0.1951,-0.1907,-0.1941,-0.1971,-0.1994,-0.1951,-0.1947,-0.1938,-0.2057,-0.2058,-0.2059,-0.206,0,0,-0.177,-0.1772,-0.1771,-0.1766,-0.1766,-0.1786,-0.1766,-0.1771,-0.1785,-0.1809,-0.182,-0.1805,-0.184,-0.1847,-0.1865,-0.1837,-0.1782,-0.188,-0.1881,-0.1859,-0.1763,-0.1679,-0.1662,-0.1822,-0.182,-0.1818,-0.1784,0,-0.1758,-0.1749,-0.1749,-0.1747,-0.1743,-0.1755,-0.1741,-0.175,-0.1775,-0.1794,-0.178,-0.1808,-0.1797,-0.1833,-0.1789,-0.1798,-0.1757,-0.1788,-0.1816,-0.1816,-0.1737,-0.1647,-0.1534,-0.1484,-0.1776,-0.1774,-0.1773,0,-0.1732,-0.173,-0.1718,-0.1735,-0.1737,-0.1739,-0.1745,-0.1745,-0.1753,-0.1779,-0.1783,-0.1808,-0.1755,-0.1772,-0.1707,-0.1743,-0.1727,-0.172,-0.1721,-0.1651,-0.1714,-0.1573,-0.1458,-0.1759,-0.176,-0.1761,-0.1762,0,-0.1697,-0.1708,-0.1696,-0.1693,-0.1711,-0.1715,-0.1732,-0.1747,-0.1756,-0.1775,-0.181,-0.1773,-0.1774,-0.1733,-0.1695,-0.1722,-0.1632,-0.1683,-0.1579,-0.1575,-0.148,-0.147,-0.1607,-0.1607,-0.1607,-0.1607,-0.1607,0,-0.1656,-0.1655,-0.1687,-0.1676,-0.1685,-0.171,-0.1729,-0.1745,-0.1775,-0.1776,-0.1804,-0.1791,-0.1766,-0.1724,-0.1687,-0.1583,-0.1624,-0.1524,-0.1538,-0.1455,-0.1443,-0.1691,-0.1702,-0.1606,-0.1606,-0.1606,-0.1607,0,-0.1606,-0.162,-0.162,-0.165,-0.1662,-0.1671,-0.1723,-0.1739,-0.1784,-0.1784,-0.1792,-0.1797,-0.1731,-0.1692,-0.1626,-0.1568,-0.1495,-0.1451,-0.1349,-0.1347,-0.1458,-0.1466,-0.1336,-0.1332,-0.1329,-0.1326,-0.1324,0,-0.1575,-0.1564,-0.1593,-0.1595,-0.1607,-0.1638,-0.1652,-0.1716,-0.1728,-0.1764,-0.1744,-0.172,-0.164,-0.1519,-0.1415,-0.1313,-0.1392,-0.117,-0.1164,-0.1391,-0.142,-0.1432,-0.1444,-0.1033,-0.1028,-0.1025,-0.1022,0,-0.1512,-0.1523,-0.1522,-0.1525,-0.154,-0.1563,-0.1591,-0.1594,-0.1646,-0.1654,-0.1614,-0.1566,-0.1453,-0.1272,-0.1156,-0.1092,-0.1177,-0.1091,-0.1341,-0.1111,-0.11,-0.1131,-0.1153,-0.0989,-0.0993,-0.0995,-0.0997,-0.0998,-0.146,-0.1446,-0.1437,-0.1435,-0.1455,-0.144,-0.1396,-0.1449,-0.1434,-0.1396,-0.1433,-0.1318,-0.1258,-0.0993,-0.0903,-0.0837,-0.0926,-0.0894,-0.0908,-0.0925,-0.0887,-0.0869,-0.071,-0.0712,-0.0713,-0.0714,-0.0715,0,-0.1362,-0.1347,-0.1346,-0.1321,-0.1295,-0.1341,-0.1306,-0.1238,-0.1168,-0.1203,-0.1161,-0.0959,-0.0827,-0.0776,-0.0604,-0.0559,-0.0586,-0.0547,-0.0593,-0.0623,-0.0651,-0.0603,-0.0349,-0.0348,-0.0347,-0.0347,0,0,-0.1299,-0.1247,-0.1241,-0.1149,-0.1138,-0.101,-0.0944,-0.09,-0.087,-0.0801,-0.0758,-0.0817,-0.0759,-0.0574,-0.0512,-0.0405,-0.0524,-0.038,-0.067,-0.0756,-0.0783,-0.0837,-0.0795,0,0,0,0,0]},{"header":{"parameterUnit":"m.s-1","parameterCategory":2,"la1":30.2991,"la2":30.254,"lo1":-89.0895,"lo2":-89.0444,"dy":0.0017,"dx":0.0017,"nx":28,"ny":28,"refTime":"2025-08-17T09:00:00:Z","depth":"2","parameterNumber":3,"parameterNumberName":"V-component_of_CURRENTS"},"data":[0,0,0,0,0,0,0,0,0,0,0,0,0,0,0,0,0,0,0,0,0,0,0,0,0,0,0,0,0,0,0,0,0,0,0,0,0,0,0,0,0,0,0,0,0,0,0,0,0,0,0,0,0,0,0,0,0,0,-0.0388,-0.0387,0,-0.0288,-0.0287,-0.0285,-0.0256,-0.0257,-0.0257,-0.0258,-0.0073,-0.0067,-0.0062,0,0,0,0,0,0,0,0,0,0,0,0,0,-0.046,-0.046,-0.0388,-0.0387,-0.0385,-0.0288,-0.0287,-0.0285,-0.0256,-0.0257,-0.0258,-0.0258,-0.0074,-0.0068,-0.0061,0,0,0,0,0,0,0,0,0,0,0,0,0,-0.0401,-0.046,-0.0388,-0.036,-0.0356,-0.0288,-0.0287,-0.0285,-0.0256,-0.0257,-0.0258,-0.0259,-0.0077,-0.0069,-0.0061,0.0007,0,0,-0.0035,-0.0032,0,0,0,0,0,0,0,0,-0.0405,-0.0399,-0.0365,-0.0361,-0.0357,-0.0286,-0.0244,-0.0183,-0.0256,-0.0294,-0.0258,-0.0259,-0.0135,-0.0123,-0.0103,0.0016,0.0024,-0.0035,-0.003,-0.0026,-0.0024,0,0,0,0,0,0,0,-0.0409,-0.0402,-0.0348,-0.0364,-0.0359,-0.032,-0.0313,-0.0232,-0.0209,-0.029,-0.0288,-0.0277,-0.0133,-0.0111,-0.0098,0.0026,-0.0035,-0.0028,-0.0023,-0.0019,0.0233,0.0235,0,0,0,0,0,0,-0.0426,-0.0407,-0.0351,-0.0345,-0.0384,-0.0318,-0.0311,-0.0308,-0.0212,-0.0199,-0.0277,-0.0276,-0.0124,-0.0107,-0.0091,-0.0027,-0.0026,-0.0019,-0.0014,0.0231,0.0234,0.0236,0,0,0,0,0,0,-0.0428,-0.0422,-0.0355,-0.0373,-0.0362,-0.0317,-0.0313,-0.0305,-0.0286,-0.0202,-0.0188,-0.0266,-0.0124,-0.0102,-0.0044,-0.0019,-0.0015,-0.0008,0.0229,0.0232,0.0235,0.0115,0,0,0,0,0,0,-0.0431,-0.0424,-0.0429,-0.0375,-0.0362,-0.0336,-0.0312,-0.0303,-0.0278,-0.0276,-0.0188,-0.0172,-0.0123,-0.0057,-0.0036,-0.0008,-0.0001,0.0227,0.0231,0.0234,0.0117,0.0113,0.011,0,0,0,0,0,-0.0434,-0.0433,-0.043,-0.0423,-0.037,-0.0336,-0.0327,-0.0295,-0.0277,-0.0278,-0.0225,-0.0175,-0.0019,-0.0051,-0.0026,0.0006,0.0225,0.023,0.0233,0.0118,0.0114,0.011,0,0,0,0,0,0,-0.046,-0.0428,-0.0424,-0.0413,-0.039,-0.0332,-0.0321,-0.0295,-0.0252,-0.0243,-0.017,-0.015,-0.0092,-0.0015,-0.0051,0.0095,0.0121,0.013,0.0025,0.0022,0.0019,-0.0011,0.0006,0,0,0,0,0,-0.0471,-0.0464,-0.0432,-0.0422,-0.0415,-0.0368,-0.0348,-0.0327,-0.0279,-0.0261,-0.0197,-0.0114,-0.005,0.0001,0.0064,0.0148,0.0182,0.0196,0.0192,0.0189,0.0185,0.0221,0.0218,0.0249,0.0249,0.0249,0,0,-0.0476,-0.0456,-0.0453,-0.0428,-0.0403,-0.0386,-0.0358,-0.0331,-0.0309,-0.0242,-0.0188,-0.0136,-0.0037,0.003,0.0071,0.0097,0.0202,0.0194,0.0189,0.0188,0.0224,0.0221,0.0217,0.0252,0.0251,0.0251,0,0,-0.0479,-0.047,-0.047,-0.0452,-0.0423,-0.0395,-0.0392,-0.034,-0.0318,-0.0263,-0.0216,-0.0168,-0.0033,0.0014,0.0064,0.0095,0.0164,0.0153,0.0133,0.0166,0.0162,0.0159,0.0195,0.0196,0.0174,0.0174,0.0174,0,-0.0489,-0.0482,-0.0464,-0.0455,-0.0437,-0.0404,-0.0394,-0.0362,-0.0296,-0.0273,-0.0257,-0.011,-0.0047,0.0027,0.0032,0.0082,0.012,0.0124,0.0154,0.0153,0.0151,0.0189,0.0192,0.0168,0.0169,0.017,0.017,0,-0.0491,-0.0485,-0.0479,-0.0462,-0.0445,-0.0427,-0.0391,-0.0366,-0.0327,-0.0289,-0.0226,-0.0159,-0.007,-0.0032,0.001,0.0058,0.0092,0.0116,0.0142,0.0139,0.0182,0.0186,0.0161,0.0163,0.0164,0.0166,0,0,-0.0517,-0.0489,-0.0488,-0.0484,-0.0446,-0.0433,-0.04,-0.0366,-0.0343,-0.0284,-0.0247,-0.0162,-0.0133,-0.0075,-0.0015,0.0022,0.0031,0.0071,0.0076,0.0069,0.0115,0.0137,0.0145,0.006,0.0061,0.0061,0.0144,0,-0.0527,-0.0518,-0.0496,-0.0484,-0.0478,-0.044,-0.0415,-0.0377,-0.0334,-0.0292,-0.0232,-0.0179,-0.0142,-0.0107,-0.007,0.0008,0.0041,0.0007,0.0154,0.0159,0.0146,0.015,0.0151,0.0226,0.0149,0.015,0.015,0,-0.0541,-0.0531,-0.0525,-0.0499,-0.0495,-0.0483,-0.0444,-0.0417,-0.0356,-0.032,-0.0267,-0.0216,-0.0154,-0.0131,-0.002,-0.0037,0.0027,0.0081,0.0086,0.015,0.019,0.0224,0.0238,0.0159,0.0158,0.0158,0.0157,0,-0.0573,-0.0552,-0.055,-0.0538,-0.0504,-0.0498,-0.0481,-0.0428,-0.0408,-0.0347,-0.0322,-0.0241,-0.0193,-0.0115,-0.0004,-0.0007,0.0117,0.0129,0.0207,0.021,0.0262,0.0269,0.0191,0.0191,0.019,0.019,0.019,0,-0.0588,-0.0589,-0.0569,-0.0566,-0.0572,-0.0534,-0.0529,-0.0496,-0.0446,-0.0415,-0.035,-0.0296,-0.0186,-0.0096,-0.001,0.0119,0.0115,0.0199,0.0231,0.0224,0.0226,0.0215,0.0217,0.0193,0.0193,0.0192,0.0191,0,-0.0624,-0.0604,-0.061,-0.0589,-0.0588,-0.0596,-0.0578,-0.0571,-0.0515,-0.0471,-0.0455,-0.0333,-0.0205,-0.0095,0.0053,0.012,0.0231,0.0275,0.026,0.0288,0.03,0.0296,0.0364,0.0365,0.0366,0.0367,0.0368,0,-0.0644,-0.0647,-0.0646,-0.0662,-0.066,-0.0665,-0.0669,-0.0618,-0.0597,-0.0479,-0.0455,-0.0322,-0.0201,0.0014,0.0151,0.0298,0.0287,0.0371,0.0354,0.0293,0.0317,0.0311,0.0305,0.0382,0.0383,0.0384,0.0385,0,-0.0685,-0.0685,-0.0692,-0.0727,-0.0744,-0.0751,-0.0742,-0.0724,-0.0639,-0.0579,-0.044,-0.033,-0.0105,0.0083,0.0257,0.034,0.0342,0.039,0.0346,0.0331,0.0316,0.0338,0.033,0.0391,0.0391,0.039,0.039,0.0389,-0.0724,-0.0749,-0.0762,-0.0795,-0.0821,-0.0819,-0.0802,-0.0764,-0.0703,-0.0564,-0.0451,-0.0264,-0.0089,0.0183,0.0313,0.0429,0.0425,0.0447,0.0443,0.0438,0.0418,0.0405,0.0494,0.0494,0.0494,0.0494,0.0494,0,-0.0758,-0.0784,-0.0829,-0.0856,-0.0892,-0.0879,-0.0838,-0.0784,-0.0693,-0.0549,-0.0408,-0.0196,0.0009,0.019,0.0394,0.0499,0.0481,0.0504,0.0465,0.0459,0.0454,0.0432,0.0513,0.0513,0.0513,0.0513,0,0,-0.0775,-0.0818,-0.0841,-0.0905,-0.0927,-0.0897,-0.0855,-0.0768,-0.0644,-0.0471,-0.0326,-0.0193,0.0044,0.0166,0.0312,0.0433,0.0411,0.0435,0.0414,0.0348,0.0341,0.0422,0.0382,0,0,0,0,0]}],[{"header":{"parameterUnit":"m.s-1","parameterCategory":2,"la1":30.2991,"la2":30.254,"lo1":-89.0895,"lo2":-89.0444,"dy":0.0017,"dx":0.0017,"nx":28,"ny":28,"refTime":"2025-08-17T09:00:00:Z","depth":"4","parameterNumber":2,"parameterNumberName":"U-component_of_CURRENTS"},"data":[0,0,0,0,0,0,0,0,0,0,0,0,0,0,0,0,0,0,0,0,0,0,0,0,0,0,0,0,0,0,0,0,0,0,0,0,0,0,0,0,0,0,0,0,0,0,0,0,0,0,0,0,0,0,0,0,0,0,-0.1091,-0.1091,0,-0.1099,-0.1099,-0.1099,-0.1102,-0.1102,-0.1102,-0.1102,-0.1142,-0.1143,-0.1144,0,0,0,0,0,0,0,0,0,0,0,0,0,-0.1106,-0.1105,-0.1091,-0.1091,-0.1092,-0.1099,-0.1099,-0.1099,-0.1102,-0.1102,-0.1102,-0.1102,-0.1141,-0.1143,-0.1144,0,0,0,0,0,0,0,0,0,0,0,0,0,-0.1103,-0.1105,-0.1091,-0.1095,-0.1096,-0.1099,-0.1099,-0.1099,-0.1102,-0.1102,-0.1102,-0.1102,-0.1141,-0.1142,-0.1144,-0.1149,0,0,-0.1148,-0.1149,0,0,0,0,0,0,0,0,-0.1103,-0.1103,-0.1094,-0.1095,-0.1096,-0.1101,-0.1118,-0.1117,-0.1102,-0.1098,-0.1102,-0.1103,-0.1132,-0.1134,-0.1132,-0.115,-0.1152,-0.1148,-0.1149,-0.115,-0.115,0,0,0,0,0,0,0,-0.1103,-0.1102,-0.1093,-0.1095,-0.1095,-0.1106,-0.1105,-0.1118,-0.1113,-0.1098,-0.1099,-0.1102,-0.1132,-0.1131,-0.1134,-0.1153,-0.1148,-0.1149,-0.115,-0.1151,-0.1211,-0.1212,0,0,0,0,0,0,-0.1104,-0.1102,-0.1092,-0.1093,-0.1102,-0.1105,-0.1105,-0.1098,-0.1112,-0.1115,-0.1102,-0.1102,-0.1129,-0.1132,-0.1135,-0.1169,-0.115,-0.1151,-0.1152,-0.121,-0.1211,-0.1212,0,0,0,0,0,0,-0.1104,-0.1102,-0.1092,-0.11,-0.1099,-0.1105,-0.1097,-0.1098,-0.1112,-0.1115,-0.1118,-0.1117,-0.1129,-0.1133,-0.116,-0.1169,-0.1152,-0.1153,-0.1209,-0.1211,-0.1212,-0.1219,0,0,0,0,0,0,-0.1104,-0.1102,-0.111,-0.1099,-0.1099,-0.1107,-0.1097,-0.1098,-0.1113,-0.1114,-0.1129,-0.1132,-0.1129,-0.1158,-0.1161,-0.1171,-0.1154,-0.1208,-0.121,-0.1211,-0.1218,-0.1221,-0.1223,0,0,0,0,0,-0.1104,-0.1111,-0.111,-0.111,-0.1105,-0.1108,-0.1109,-0.1112,-0.1114,-0.1125,-0.1134,-0.1132,-0.1169,-0.116,-0.1163,-0.1174,-0.1208,-0.121,-0.1211,-0.1217,-0.122,-0.1223,0,0,0,0,0,0,-0.1123,-0.1112,-0.1111,-0.1114,-0.1118,-0.1109,-0.1123,-0.1123,-0.1137,-0.1144,-0.1143,-0.1147,-0.117,-0.1177,-0.1166,-0.1196,-0.1188,-0.119,-0.1191,-0.1194,-0.1196,-0.1204,-0.1155,0,0,0,0,0,-0.113,-0.1131,-0.1124,-0.113,-0.1133,-0.1131,-0.1138,-0.1139,-0.1145,-0.1152,-0.1161,-0.1172,-0.1178,-0.119,-0.1198,-0.1221,-0.1221,-0.1231,-0.1233,-0.1235,-0.1245,-0.1257,-0.1261,-0.1218,-0.1218,-0.1218,0,0,-0.1139,-0.1135,-0.1136,-0.1135,-0.1137,-0.1139,-0.1136,-0.115,-0.1156,-0.1155,-0.1178,-0.1182,-0.1185,-0.1203,-0.1215,-0.1212,-0.1244,-0.1237,-0.1238,-0.1248,-0.1259,-0.1263,-0.1267,-0.1219,-0.1219,-0.1219,0,0,-0.1149,-0.1153,-0.1155,-0.1158,-0.1167,-0.1164,-0.1172,-0.1175,-0.1185,-0.1201,-0.1199,-0.1215,-0.1229,-0.1233,-0.1234,-0.1259,-0.1252,-0.1262,-0.1285,-0.1296,-0.1299,-0.1303,-0.1289,-0.1292,-0.1267,-0.1267,-0.1267,0,-0.1167,-0.1161,-0.116,-0.1162,-0.1172,-0.1175,-0.1184,-0.1188,-0.1202,-0.1221,-0.1213,-0.124,-0.1239,-0.1261,-0.1262,-0.1263,-0.1263,-0.127,-0.1298,-0.1301,-0.1305,-0.1291,-0.1293,-0.1268,-0.1268,-0.1268,-0.1267,0,-0.1166,-0.1173,-0.1178,-0.1177,-0.1188,-0.1202,-0.1205,-0.1227,-0.1237,-0.1242,-0.1274,-0.1273,-0.1293,-0.1289,-0.1278,-0.1305,-0.1293,-0.1294,-0.1288,-0.1309,-0.1293,-0.1295,-0.1268,-0.1268,-0.1268,-0.1268,0,0,-0.1175,-0.1179,-0.1184,-0.1194,-0.1204,-0.1214,-0.1233,-0.1258,-0.1283,-0.1292,-0.1319,-0.1323,-0.1334,-0.1337,-0.1334,-0.134,-0.1344,-0.1328,-0.1329,-0.131,-0.1355,-0.1235,-0.1226,-0.1351,-0.1352,-0.1353,-0.1327,0,-0.1182,-0.1194,-0.1195,-0.1218,-0.1226,-0.1245,-0.1265,-0.129,-0.1308,-0.1333,-0.1341,-0.136,-0.1348,-0.1359,-0.1365,-0.1348,-0.1353,-0.135,-0.1343,-0.1342,-0.1229,-0.1226,-0.1356,-0.1329,-0.1329,-0.133,-0.133,0,-0.1174,-0.1189,-0.1212,-0.1248,-0.1257,-0.1275,-0.1328,-0.1345,-0.1376,-0.1391,-0.1415,-0.1415,-0.1424,-0.1408,-0.1404,-0.1404,-0.1387,-0.137,-0.1369,-0.126,-0.1227,-0.1309,-0.1333,-0.1333,-0.1333,-0.1333,-0.1332,0,-0.1171,-0.1201,-0.1229,-0.1238,-0.1273,-0.1306,-0.1333,-0.1372,-0.1392,-0.143,-0.1436,-0.1461,-0.1453,-0.1455,-0.1408,-0.1416,-0.1385,-0.1393,-0.1274,-0.1265,-0.1378,-0.1375,-0.1402,-0.1402,-0.1402,-0.1402,-0.1402,0,-0.1161,-0.1186,-0.1237,-0.1248,-0.1296,-0.1322,-0.1373,-0.1402,-0.1436,-0.1435,-0.1468,-0.145,-0.1464,-0.1438,-0.1419,-0.133,-0.1397,-0.1272,-0.1251,-0.1379,-0.1376,-0.1378,-0.1375,-0.1401,-0.1402,-0.1402,-0.1402,0,-0.1132,-0.1165,-0.1202,-0.1265,-0.1287,-0.1322,-0.1378,-0.1398,-0.1443,-0.1437,-0.1443,-0.1442,-0.1389,-0.1384,-0.1358,-0.1313,-0.1266,-0.1226,-0.1342,-0.1329,-0.1139,-0.1138,-0.1097,-0.1092,-0.1089,-0.1086,-0.1083,0,-0.1113,-0.113,-0.1206,-0.1226,-0.1255,-0.131,-0.1331,-0.1391,-0.1388,-0.1401,-0.1369,-0.1346,-0.1325,-0.1187,-0.1206,-0.1161,-0.115,-0.1133,-0.1157,-0.1124,-0.1109,-0.1114,-0.1117,-0.1077,-0.1076,-0.1075,-0.1074,0,-0.1079,-0.1118,-0.1144,-0.1181,-0.1215,-0.1239,-0.1267,-0.1257,-0.1288,-0.1351,-0.1251,-0.1206,-0.1133,-0.1092,-0.1055,-0.1031,-0.115,-0.1094,-0.1103,-0.1125,-0.11,-0.1089,-0.1097,-0.1061,-0.1063,-0.1064,-0.1065,0,-0.1053,-0.1063,-0.1096,-0.1115,-0.1151,-0.1123,-0.1161,-0.113,-0.1137,-0.1151,-0.111,-0.108,-0.1099,-0.1021,-0.0989,-0.0947,-0.0942,-0.0933,-0.095,-0.0965,-0.0932,-0.0881,-0.075,0,0,0,0,0,-0.1013,-0.0999,-0.1018,-0.1014,-0.1041,-0.1047,-0.1084,-0.1114,-0.1149,-0.1045,-0.1074,-0.0997,-0.0919,-0.0916,-0.0843,-0.0934,-0.0954,-0.0848,-0.0956,-0.0989,-0.1004,-0.0977,0,0,0,0,0,0,-0.0976,-0.0992,-0.0984,-0.0915,-0.0886,-0.0886,-0.0899,-0.0927,-0.0876,-0.0925,-0.0883,-0.0935,-0.0875,-0.093,-0.0816,-0.0818,-0.0866,-0.0854,-0.0851,-0.0981,-0.0994,-0.1006,-0.0984,0,0,0,0,0]},{"header":{"parameterUnit":"m.s-1","parameterCategory":2,"la1":30.2991,"la2":30.254,"lo1":-89.0895,"lo2":-89.0444,"dy":0.0017,"dx":0.0017,"nx":28,"ny":28,"refTime":"2025-08-17T09:00:00:Z","depth":"4","parameterNumber":3,"parameterNumberName":"V-component_of_CURRENTS"},"data":[0,0,0,0,0,0,0,0,0,0,0,0,0,0,0,0,0,0,0,0,0,0,0,0,0,0,0,0,0,0,0,0,0,0,0,0,0,0,0,0,0,0,0,0,0,0,0,0,0,0,0,0,0,0,0,0,0,0,-0.0347,-0.0347,0,-0.0345,-0.0345,-0.0345,-0.0348,-0.0348,-0.0348,-0.0348,-0.0329,-0.0328,-0.0328,0,0,0,0,0,0,0,0,0,0,0,0,0,-0.0343,-0.0343,-0.0347,-0.0347,-0.0347,-0.0345,-0.0345,-0.0345,-0.0348,-0.0348,-0.0348,-0.0348,-0.0329,-0.0328,-0.0328,0,0,0,0,0,0,0,0,0,0,0,0,0,-0.0343,-0.0343,-0.0347,-0.0348,-0.0348,-0.0345,-0.0345,-0.0345,-0.0348,-0.0348,-0.0348,-0.0348,-0.0329,-0.0328,-0.0327,-0.0318,0,0,-0.0325,-0.0324,0,0,0,0,0,0,0,0,-0.0343,-0.0343,-0.0348,-0.0348,-0.0348,-0.0347,-0.0336,-0.0335,-0.0348,-0.0348,-0.0348,-0.0348,-0.0333,-0.0332,-0.0331,-0.0317,-0.0316,-0.0324,-0.0324,-0.0324,-0.0323,0,0,0,0,0,0,0,-0.0343,-0.0343,-0.0346,-0.0348,-0.0348,-0.0345,-0.0346,-0.0336,-0.0339,-0.0348,-0.0348,-0.0348,-0.0333,-0.0332,-0.0331,-0.0316,-0.0325,-0.0324,-0.0323,-0.0323,-0.0301,-0.0301,0,0,0,0,0,0,-0.0344,-0.0344,-0.0346,-0.0346,-0.0346,-0.0345,-0.0346,-0.0347,-0.034,-0.0339,-0.0348,-0.0348,-0.0334,-0.0332,-0.033,-0.0323,-0.0324,-0.0323,-0.0322,-0.0301,-0.0301,-0.0301,0,0,0,0,0,0,-0.0344,-0.0344,-0.0346,-0.0345,-0.0345,-0.0345,-0.0347,-0.0347,-0.0351,-0.034,-0.0339,-0.0353,-0.0334,-0.0331,-0.0325,-0.0322,-0.0322,-0.0321,-0.0301,-0.0301,-0.0301,-0.0307,0,0,0,0,0,0,-0.0344,-0.0344,-0.0352,-0.0345,-0.0345,-0.0348,-0.0347,-0.0347,-0.0351,-0.0351,-0.0344,-0.0342,-0.0334,-0.0327,-0.0324,-0.0321,-0.0321,-0.0301,-0.0301,-0.0301,-0.0307,-0.0307,-0.0307,0,0,0,0,0,-0.0344,-0.0347,-0.0352,-0.0353,-0.0353,-0.0348,-0.0348,-0.0349,-0.0351,-0.0354,-0.0348,-0.0342,-0.0325,-0.0326,-0.0323,-0.032,-0.0301,-0.0301,-0.0301,-0.0306,-0.0307,-0.0307,0,0,0,0,0,0,-0.0348,-0.0348,-0.0353,-0.0357,-0.0356,-0.0349,-0.0353,-0.0352,-0.035,-0.0352,-0.0342,-0.0339,-0.0335,-0.0326,-0.0328,-0.0314,-0.0312,-0.0311,-0.0317,-0.0317,-0.0318,-0.0305,-0.032,0,0,0,0,0,-0.0354,-0.0356,-0.0356,-0.0359,-0.0361,-0.0359,-0.036,-0.0359,-0.0354,-0.0354,-0.0347,-0.0339,-0.0331,-0.0324,-0.0319,-0.0308,-0.0279,-0.0304,-0.0304,-0.0305,-0.0293,-0.0237,-0.023,-0.0301,-0.0301,-0.0301,0,0,-0.0357,-0.0356,-0.0359,-0.0361,-0.0362,-0.0362,-0.036,-0.0361,-0.0359,-0.0351,-0.0348,-0.0343,-0.0331,-0.0322,-0.0318,-0.0314,-0.0274,-0.0305,-0.0305,-0.0292,-0.0236,-0.0229,-0.0222,-0.0301,-0.0301,-0.0301,0,0,-0.0358,-0.0364,-0.0369,-0.0369,-0.0371,-0.0368,-0.037,-0.0367,-0.0365,-0.0363,-0.0355,-0.0343,-0.0339,-0.0319,-0.0311,-0.0307,-0.0282,-0.0314,-0.0298,-0.0244,-0.0237,-0.0231,-0.02,-0.0191,-0.0308,-0.0308,-0.0308,0,-0.0365,-0.0368,-0.0369,-0.0371,-0.037,-0.0372,-0.0373,-0.037,-0.0364,-0.0352,-0.0365,-0.0336,-0.0332,-0.0299,-0.0304,-0.0306,-0.0279,-0.0298,-0.0242,-0.0235,-0.0229,-0.0198,-0.0188,-0.0308,-0.0308,-0.0308,-0.0308,0,-0.037,-0.0373,-0.0374,-0.0378,-0.0377,-0.0377,-0.0373,-0.0368,-0.037,-0.036,-0.0338,-0.0328,-0.0304,-0.0307,-0.0308,-0.026,-0.0259,-0.0253,-0.0239,-0.0221,-0.0192,-0.0181,-0.0309,-0.0309,-0.0308,-0.0308,0,0,-0.0383,-0.0379,-0.0381,-0.0382,-0.038,-0.0378,-0.0369,-0.0355,-0.0341,-0.0336,-0.0308,-0.0297,-0.0284,-0.0273,-0.0265,-0.0223,-0.0168,-0.022,-0.0217,-0.0185,-0.006,-0.0075,-0.0065,-0.0149,-0.0147,-0.0145,-0.0063,0,-0.039,-0.0392,-0.0386,-0.0387,-0.0389,-0.0378,-0.0367,-0.0352,-0.0339,-0.0313,-0.0286,-0.0267,-0.0273,-0.0264,-0.0219,-0.0188,-0.0137,-0.0191,-0.0085,-0.0082,-0.0093,-0.0051,-0.0138,-0.0055,-0.0052,-0.0051,-0.0049,0,-0.0401,-0.0399,-0.0403,-0.0387,-0.0387,-0.0388,-0.0364,-0.0353,-0.0311,-0.0297,-0.0259,-0.0241,-0.0191,-0.0198,-0.0104,-0.0139,-0.0093,-0.0063,-0.0059,-0.0059,-0.0076,-0.0072,-0.0029,-0.0031,-0.0032,-0.0033,-0.0035,0,-0.0415,-0.0409,-0.0412,-0.041,-0.0397,-0.0392,-0.0384,-0.0351,-0.0334,-0.0284,-0.0266,-0.0201,-0.0178,-0.0104,-0.006,-0.0072,0.0045,0.0039,0.0077,0.0075,0.0066,0.0058,0.0137,0.0137,0.0137,0.0137,0.0136,0,-0.0422,-0.0425,-0.0423,-0.0426,-0.0429,-0.0409,-0.04,-0.0377,-0.0335,-0.0312,-0.0262,-0.0229,-0.0151,-0.0087,-0.0035,0.0046,0.0071,0.0096,0.0108,0.0057,0.0048,0.0073,0.0064,0.014,0.0139,0.0138,0.0138,0,-0.0438,-0.0435,-0.0444,-0.0437,-0.044,-0.0445,-0.043,-0.0416,-0.0372,-0.0337,-0.0322,-0.0242,-0.016,-0.0082,0.0031,0.0069,0.0151,0.0181,0.011,0.0113,0.0141,0.0131,0.0242,0.0242,0.0243,0.0243,0.0243,0,-0.0446,-0.0454,-0.0467,-0.0483,-0.0487,-0.049,-0.0492,-0.0449,-0.0429,-0.035,-0.0332,-0.0241,-0.0187,-0.0038,0.0044,0.0165,0.0177,0.022,0.0197,0.0158,0.0158,0.0147,0.0137,0.0244,0.0244,0.0244,0.0244,0,-0.0467,-0.0479,-0.0488,-0.0521,-0.0539,-0.054,-0.0533,-0.0517,-0.0458,-0.0419,-0.0332,-0.0243,-0.0145,-0.0038,0.0057,0.014,0.019,0.0224,0.0224,0.0203,0.0161,0.0158,0.0148,0.0245,0.0245,0.0245,0.0245,0,-0.0492,-0.0511,-0.0534,-0.0556,-0.0584,-0.0583,-0.0568,-0.053,-0.0494,-0.0397,-0.0373,-0.0254,-0.0181,-0.0049,0.0035,0.0117,0.0138,0.0157,0.016,0.016,0.0104,0.0037,0.0112,0,0,0,0,0,-0.051,-0.0534,-0.0566,-0.0587,-0.0611,-0.0617,-0.0595,-0.0567,-0.0509,-0.0455,-0.0405,-0.0312,-0.0159,-0.0088,-0.0007,0.0032,0.0141,0.0129,0.0161,0.0252,0.025,0.0197,0,0,0,0,0,0,-0.0525,-0.0561,-0.0572,-0.0608,-0.0626,-0.0639,-0.0624,-0.0579,-0.0531,-0.0466,-0.0385,-0.0311,-0.0167,-0.0218,-0.0016,0.0013,0.0041,0.0209,0.0211,0.0253,0.0251,0.025,0.0195,0,0,0,0,0]}]]